Dilworth, MN

7:42 AM CST on January 18, 2017 (GMT -0600)
Moorhead Municipal

Weather History for KJKJ - October, 2012

Change the Weather History Date:

Monday, October 22, 2012

  Actual Average (KFAR) Record (KFAR)
Temperature  
Mean Temperature 47 °F -  
Max Temperature 55 °F 54 °F 82 °F (1901)
Min Temperature 39 °F 34 °F 10 °F (1936)
Degree Days  
Heating Degree Days 18    
Moisture  
Dew Point 43 °F    
Average Humidity 86    
Maximum Humidity 100    
Minimum Humidity 62    
Precipitation  
Precipitation 0.06 in - - ()
Sea Level Pressure  
Sea Level Pressure 30.00 in    
Wind  
Wind Speed 11 mph (NNE)    
Max Wind Speed 16 mph    
Max Gust Speed 20 mph    
Visibility 10 miles    
Events Rain    
Averages and records for this station are not official NWS values.
T = Trace of Precipitation, MM = Missing Value Source: NWS Daily Summary

Daily Weather History Graph

Daily Weather History Graph

Search for Another Location

Airport or City:

Trip Planner

Search our weather history database for the weather conditions in past years. The results will help you decide how hot, cold, wet, or windy it might be!

Date:

Astronomy

Oct. 22, 2012 Rise Set
Actual Time 7:55 AM CDT 6:26 PM CDT
Civil Twilight 7:24 AM CDT 6:57 PM CDT
Nautical Twilight 6:48 AM CDT 7:32 PM CDT
Astronomical Twilight 6:13 AM CDT 8:07 PM CDT
Moon 2:58 PM CDT (10/22) 12:17 AM CDT (10/22)
Length of Visible Light 11h 32m
Length of Day
10h 30m
First Quarter, 56% of the Moon is Illuminated
Oct 22
First Quarter
Oct 29
Full
Nov 6
Last Quarter
Nov 13
New
Nov 20
First Quarter

Hourly Weather History & Observations

Time (CDT) Temp. Windchill Dew Point Humidity Pressure Visibility Wind Dir Wind Speed Gust Speed Precip Events Conditions
12:15 AM 44.6 °F 39.7 °F 44.6 °F 100% 30.05 in 10.0 mi North 9.2 mph - N/A   Clear
12:55 AM 42.8 °F 37.0 °F 42.8 °F 100% 30.05 in 10.0 mi North 10.4 mph - N/A   Clear
1:34 AM 42.8 °F 36.6 °F 42.8 °F 100% 30.05 in 10.0 mi North 11.5 mph - N/A   Clear
1:55 AM 42.8 °F 36.2 °F 42.8 °F 100% 30.05 in 10.0 mi NNE 12.7 mph - N/A   Clear
2:15 AM 42.8 °F 37.5 °F 42.8 °F 100% 30.06 in 10.0 mi North 9.2 mph - N/A   Clear
2:34 AM 42.8 °F 36.6 °F 42.8 °F 100% 30.05 in 10.0 mi NNE 11.5 mph - N/A   Clear
2:55 AM 42.8 °F 36.2 °F 42.8 °F 100% 30.05 in 10.0 mi NNE 12.7 mph - N/A   Clear
3:15 AM 42.8 °F 36.2 °F 42.8 °F 100% 30.05 in 10.0 mi NNE 12.7 mph - N/A   Scattered Clouds
3:55 AM 42.8 °F 36.6 °F 42.8 °F 100% 30.04 in 10.0 mi NNE 11.5 mph - N/A   Clear
4:14 AM 42.8 °F 36.6 °F 42.8 °F 100% 30.05 in 10.0 mi NNE 11.5 mph - N/A   Clear
4:35 AM 41.0 °F 33.9 °F 41.0 °F 100% 30.06 in 10.0 mi NNE 12.7 mph - N/A   Clear
4:55 AM 41.0 °F 33.5 °F 41.0 °F 100% 30.06 in 10.0 mi North 13.8 mph - N/A   Clear
5:14 AM 41.0 °F 33.5 °F 41.0 °F 100% 30.06 in 10.0 mi North 13.8 mph 19.6 mph N/A   Scattered Clouds
5:35 AM 41.0 °F 32.8 °F 39.2 °F 93% 30.06 in 10.0 mi NNE 16.1 mph - N/A   Scattered Clouds
5:55 AM 41.0 °F 32.8 °F 39.2 °F 93% 30.06 in 10.0 mi NNE 16.1 mph - N/A   Overcast
6:14 AM 41.0 °F 33.5 °F 39.2 °F 93% 30.06 in 10.0 mi NNE 13.8 mph - N/A   Overcast
6:35 AM 41.0 °F 33.5 °F 39.2 °F 93% 30.06 in 10.0 mi NNE 13.8 mph - N/A   Scattered Clouds
6:55 AM 39.2 °F 31.2 °F 39.2 °F 100% 30.06 in 10.0 mi NE 13.8 mph - N/A   Scattered Clouds
7:14 AM 41.0 °F 33.1 °F 39.2 °F 93% 30.06 in 10.0 mi NNE 15.0 mph - N/A   Mostly Cloudy
7:35 AM 41.0 °F 33.1 °F 39.2 °F 93% 30.05 in 10.0 mi NE 15.0 mph - N/A   Overcast
7:55 AM 41.0 °F 34.7 °F 39.2 °F 93% 30.04 in 10.0 mi ENE 10.4 mph 16.1 mph N/A   Overcast
8:14 AM 42.8 °F 37.5 °F 39.2 °F 87% 30.06 in 10.0 mi NNE 9.2 mph - N/A   Overcast
8:35 AM 42.8 °F 37.5 °F 41.0 °F 93% 30.05 in 10.0 mi NNE 9.2 mph - N/A   Mostly Cloudy
8:55 AM 42.8 °F 37.0 °F 41.0 °F 93% 30.06 in 10.0 mi NNE 10.4 mph - N/A   Scattered Clouds
9:15 AM 42.8 °F 37.0 °F 41.0 °F 93% 30.06 in 10.0 mi North 10.4 mph - N/A   Scattered Clouds
9:35 AM 42.8 °F 36.6 °F 41.0 °F 93% 30.06 in 10.0 mi NNE 11.5 mph - N/A   Clear
9:55 AM 42.8 °F 36.6 °F 42.8 °F 100% 30.07 in 10.0 mi NNE 11.5 mph - N/A   Clear
10:15 AM 44.6 °F 38.8 °F 42.8 °F 93% 30.07 in 10.0 mi NNE 11.5 mph - N/A   Clear
10:35 AM 46.4 °F 40.7 °F 42.8 °F 87% 30.06 in 10.0 mi NE 12.7 mph - N/A   Clear
10:54 AM 46.4 °F 41.5 °F 42.8 °F 87% 30.05 in 10.0 mi ENE 10.4 mph 16.1 mph N/A   Clear
11:15 AM 50.0 °F - 39.2 °F 66% 30.04 in 10.0 mi ENE 12.7 mph 16.1 mph N/A   Clear
11:35 AM 50.0 °F - 37.4 °F 62% 30.05 in 10.0 mi ENE 8.1 mph - N/A   Clear
11:54 AM 51.8 °F - 39.2 °F 62% 30.04 in 10.0 mi ENE 6.9 mph - N/A   Clear
12:15 PM 51.8 °F - 39.2 °F 62% 30.03 in 10.0 mi NE 6.9 mph - N/A   Clear
12:35 PM 51.8 °F - 42.8 °F 71% 30.04 in 10.0 mi North 10.4 mph - N/A   Clear
12:54 PM 51.8 °F - 42.8 °F 71% 30.03 in 10.0 mi North 12.7 mph - N/A   Clear
1:15 PM 51.8 °F - 42.8 °F 71% 30.02 in 10.0 mi North 11.5 mph - N/A   Clear
1:34 PM 51.8 °F - 42.8 °F 71% 30.01 in 10.0 mi North 11.5 mph - N/A   Clear
1:55 PM 51.8 °F - 42.8 °F 71% 30.00 in 10.0 mi NNE 12.7 mph - N/A   Clear
2:15 PM 53.6 °F - 42.8 °F 67% 30.00 in 10.0 mi NNE 12.7 mph - N/A   Clear
2:34 PM 51.8 °F - 42.8 °F 71% 29.98 in 10.0 mi North 13.8 mph - N/A   Clear
2:55 PM 51.8 °F - 42.8 °F 71% 29.98 in 10.0 mi NNE 12.7 mph - N/A   Clear
3:15 PM 51.8 °F - 42.8 °F 71% 29.97 in 10.0 mi NNE 15.0 mph - N/A   Clear
3:34 PM 53.6 °F - 44.6 °F 72% 29.96 in 10.0 mi NNE 12.7 mph - N/A   Clear
3:55 PM 53.6 °F - 44.6 °F 72% 29.96 in 10.0 mi NNE 12.7 mph - N/A   Clear
4:15 PM 53.6 °F - 42.8 °F 67% 29.96 in 10.0 mi NNE 13.8 mph - N/A   Clear
4:34 PM 55.4 °F - 42.8 °F 63% 29.95 in 10.0 mi NNE 16.1 mph - N/A   Clear
4:55 PM 53.6 °F - 42.8 °F 67% 29.95 in 10.0 mi NE 10.4 mph 19.6 mph N/A   Clear
5:15 PM 53.6 °F - 44.6 °F 72% 29.95 in 10.0 mi NNE 11.5 mph - N/A   Clear
5:35 PM 51.8 °F - 44.6 °F 76% 29.95 in 10.0 mi NNE 9.2 mph - N/A   Clear
5:55 PM 51.8 °F - 44.6 °F 76% 29.94 in 10.0 mi NNE 11.5 mph - N/A   Clear
6:14 PM 51.8 °F - 46.4 °F 82% 29.94 in 10.0 mi NNE 10.4 mph - N/A   Scattered Clouds
6:35 PM 51.8 °F - 46.4 °F 82% 29.93 in 10.0 mi NNE 10.4 mph - N/A   Scattered Clouds
6:55 PM 50.0 °F - 46.4 °F 87% 29.93 in 10.0 mi NNE 10.4 mph - N/A   Clear
7:14 PM 50.0 °F - 46.4 °F 87% 29.94 in 10.0 mi NNE 10.4 mph - N/A   Clear
7:35 PM 50.0 °F - 46.4 °F 87% 29.94 in 10.0 mi NE 9.2 mph - N/A   Mostly Cloudy
7:55 PM 50.0 °F - 46.4 °F 87% 29.93 in 10.0 mi NE 9.2 mph - N/A   Mostly Cloudy
8:54 PM 51.8 °F - 44.6 °F 76% 29.92 in 10.0 mi NE 6.9 mph - N/A   Overcast
9:15 PM 51.8 °F - 46.4 °F 82% 29.92 in 10.0 mi NE 6.9 mph - N/A   Overcast
9:35 PM 51.8 °F - 46.4 °F 82% 29.92 in 10.0 mi NNE 8.1 mph - N/A   Overcast
9:54 PM 50.0 °F - 46.4 °F 87% 29.91 in 10.0 mi NNE 5.8 mph - N/A Rain Rain
10:15 PM 48.2 °F - 48.2 °F 100% 29.91 in 10.0 mi NE 3.5 mph - N/A Rain Light Rain
10:35 PM 50.0 °F - 48.2 °F 94% 29.90 in 10.0 mi ENE 4.6 mph - N/A   Light Drizzle
10:54 PM 50.0 °F - 48.2 °F 94% 29.90 in 10.0 mi ENE 4.6 mph - N/A   Overcast
11:15 PM 50.0 °F - 48.2 °F 94% 29.89 in 10.0 mi NE 3.5 mph - N/A   Light Drizzle
11:35 PM 50.0 °F - 48.2 °F 94% 29.89 in 10.0 mi ENE 3.5 mph - 0.06 in Rain Light Rain